FW1841 Weather Reports


time (UTC)temp
F
wind
direction
speed
knots
gust
knots
rain 1hr
in
rain 24hr
in
rain mn
in
humidity
%
barometer
mb
20260505014510 78 257 0.0 0.0 0.00 0.00 0.00 88 1015.1
20260505013010 78 257 0.0 0.0 0.00 0.00 0.00 88 1015.1
20260505011510 79 257 0.0 0.0 0.00 0.00 0.00 88 1015.0
20260505010009 79 257 0.0 0.0 0.00 0.00 0.00 88 1015.0
20260505004508 79 257 0.0 0.0 0.00 0.00 0.00 88 1014.9
20260505003007 80 236 0.0 0.0 0.00 0.00 0.00 88 1014.8
20260505001507 80 236 0.0 0.0 0.00 0.00 0.00 87 1014.5
20260505000008 81 236 0.0 0.0 0.00 0.00 0.00 86 1014.3
20260504234506 81 236 0.0 0.0 0.00 0.00 0.00 84 1014.3
20260504233005 81 236 0.0 0.0 0.00 0.00 0.00 83 1014.0
20260504231504 82 236 0.0 0.0 0.00 0.00 0.00 81 1013.8
20260504230011 83 236 0.0 0.0 0.00 0.00 0.00 76 1013.6
20260504224502 84 236 0.0 0.0 0.00 0.00 0.00 74 1013.5
20260504223002 84 236 0.0 0.0 0.00 0.00 0.00 73 1013.5
20260504221501 84 230 0.0 0.0 0.00 0.00 0.00 72 1013.3
20260504220001 85 200 0.0 0.0 0.00 0.00 0.00 70 1013.3
20260504214604 85 148 0.0 3.5 0.00 0.00 0.00 72 1013.4
20260504213137 85 228 0.9 5.2 0.00 0.00 0.00 70 1013.3
20260504211606 86 191 0.0 5.2 0.00 0.00 0.00 70 1013.3
20260504210057 85 150 0.0 6.1 0.00 0.00 0.00 72 1013.4
20260504204557 85 207 0.0 7.0 0.00 0.00 0.00 74 1013.4
20260504203117 85 152 2.6 9.6 0.00 0.00 0.00 74 1013.4
20260504201554 85 188 2.6 9.6 0.00 0.00 0.00 76 1013.4
20260504200054 85 152 5.2 9.6 0.00 0.00 0.00 76 1013.2
20260504194603 85 150 6.1 13.0 0.00 0.00 0.00 78 1013.2
20260504193100 85 137 1.7 12.2 0.00 0.00 0.00 76 1013.4
20260504191551 84 160 7.0 13.9 0.00 0.00 0.00 77 1013.4
20260504190109 85 174 7.0 12.2 0.00 0.00 0.00 77 1013.6
20260504184559 85 144 6.1 11.3 0.00 0.00 0.00 76 1013.9
20260504183049 86 234 5.2 13.9 0.00 0.00 0.00 75 1014.2
20260504181547 85 131 4.3 12.2 0.00 0.00 0.00 76 1014.3
20260504180048 85 221 6.1 12.2 0.00 0.00 0.00 76 1014.7
20260504174546 86 151 6.1 12.2 0.00 0.00 0.00 76 1014.7
20260504173050 84 141 9.6 16.5 0.00 0.00 0.00 79 1014.8
20260504171542 85 139 8.7 15.6 0.00 0.00 0.00 77 1014.7
20260504081517 76 67 0.0 4.3 0.00 0.00 0.00 90 1013.2
20260504044602 78 131 0.0 1.7 0.00 0.00 0.00 90 1015.6
20260504043054 78 132 0.0 0.0 0.00 0.00 0.00 89 1015.7
20260504041551 77 136 0.9 2.6 0.00 0.00 0.00 89 1016.0
20260504040049 77 70 0.0 3.5 0.00 0.00 0.00 90 1016.2
20260504034554 78 14 0.0 0.0 0.00 0.00 0.00 89 1016.2
20260504033054 78 75 0.0 0.0 0.00 0.00 0.00 89 1016.4
20260504031549 78 75 0.0 0.0 0.00 0.00 0.00 89 1016.4
20260504030047 78 75 0.0 0.0 0.00 0.00 0.00 89 1016.5
20260504024547 78 75 0.0 0.0 0.00 0.00 0.00 89 1016.5
20260504023046 78 75 0.0 0.0 0.00 0.00 0.00 89 1016.4
20260504021545 78 75 0.0 0.0 0.00 0.00 0.00 89 1016.2
20260504020045 78 304 0.0 0.0 0.00 0.00 0.00 88 1016.1